Guayaquil, Ecuador

4:35 AM -05 en Septiembre 21, 2018 (GMT -0500)
Jose Joaquin de Olmedo

Tiempo Historia de SEGU - Mayo, 2018

Change the Weather History Date:

Miércoles, Mayo 16, 2018

  Actual Average Record
Temperature  
Temperatura media 80 ° F -  
Temperatura máxima 88 ° F 81 ° F 89 ° F (1998)
Temperatura mínima 73 ° F 69 ° F 69 ° F (2000)
Cooling Degree Days 16    
Growing Degree Days 30 (Base 50)    
Moisture  
Punto de rocío 70 ° F    
Average Humidity 71    
Maximum Humidity 83    
Minimum Humidity 54    
Precipitación  
Precipitación 0.00 pul 0.06 pul - ()
Presión al nivel del mar  
Presión al nivel del mar 29.81 pul    
Viento  
Velocidad del viento 6 mph ()    
Velocidad máxima del viento 10 mph    
Max Gust Speed -    
Visibilidad 6.2 Millas    
Eventos      
Averages and records for this station are not official NWS values.
T = Trace of Precipitation, MM = Missing Value Source: Averaged Metar Reports

Daily Weather History Graph

Daily Weather History Graph

Search for Another Location

Airport or City:

Astronomía

May. 16, 2018 Salida Puesta
Hora real 6:15 AM -05 6:16 PM -05
Crepúsculo civil 5:53 AM -05 6:38 PM -05
Crepúsculo náutico 5:28 AM -05 7:03 PM -05
Crepúsculo astronómico 5:02 AM -05 7:29 PM -05
Luna 7:20 AM -05 (5/16) 7:42 PM -05 (5/16)
Horas de luz 12h 44m
Horas de luz
12h 01m
Luna nueva, 2% of the Moon is Illuminated
May 16
Luna nueva
May 21
Cuarto creciente
May 29
Luna llena
Jun 6
Cuarto menguante
Jun 13
Nueva

Hourly Weather History & Observations

Hora (-05) Temp. Índice de calor Punto de rocío Humedad Presión Visibilidad Wind Dir Velocidad del viento Velocidad de ráfagas Precip Eventos Condiciones
12:00 AM 77.0 ° F - 71.6 ° F 83% 29.83 pul 6.2 mi SSO 9.2 mph - N/A   Muy nublado
1:00 AM 77.0 ° F - 69.8 ° F 78% 29.83 pul 6.2 mi SO 6.9 mph - N/A   Muy nublado
2:00 AM 75.2 ° F - 69.8 ° F 83% 29.83 pul 6.2 mi SSO 10.4 mph - N/A   Muy nublado
3:00 AM 77.0 ° F - 69.8 ° F 78% 29.80 pul 6.2 mi SO 8.1 mph - N/A   Muy nublado
4:00 AM 75.2 ° F - 69.8 ° F 83% 29.80 pul 6.2 mi SO 9.2 mph - N/A   Muy nublado
5:00 AM 75.2 ° F - 69.8 ° F 83% 29.80 pul 6.2 mi SO 8.1 mph - N/A   Muy nublado
6:00 AM 75.2 ° F - 68.0 ° F 78% 29.83 pul 6.2 mi SO 6.9 mph - N/A   Muy nublado
7:00 AM 76 ° F - 69 ° F 74% 29.85 pul 6 mi SSO 4.6 mph - -   Bruma
7:00 AM 75.2 ° F - 69.8 ° F 83% 29.83 pul 6.2 mi SSO 4.6 mph - N/A   Muy nublado
8:00 AM 78.8 ° F - 68.0 ° F 69% 29.86 pul 6.2 mi NNE 3.5 mph - N/A   Nublado
9:00 AM 80.6 ° F 83.9 ° F 69.8 ° F 70% 29.86 pul 6.2 mi NO 4.6 mph - N/A   Muy nublado
10:00 AM 82 ° F - 69 ° F 57% 29.88 pul 6 mi NNE 5.8 mph - -   Bruma
10:00 AM 82.4 ° F 86.3 ° F 69.8 ° F 66% 29.86 pul 6.2 mi NNE 5.8 mph - N/A   Muy nublado
11:00 AM 84.2 ° F 88.4 ° F 69.8 ° F 62% 29.86 pul 6.2 mi NNE 9.2 mph - N/A   Muy nublado
12:00 PM 84.2 ° F 88.4 ° F 69.8 ° F 62% 29.86 pul 6.2 mi NE 6.9 mph - N/A   Muy nublado
1:00 PM 84.2 ° F 89.6 ° F 71.6 ° F 66% 29.80 pul 6.2 mi Este 5.8 mph - N/A   Muy nublado
2:00 PM 87.8 ° F 92.6 ° F 69.8 ° F 55% 29.77 pul 6.2 mi ENE 4.6 mph - N/A   Muy nublado
3:00 PM 86.0 ° F 91.8 ° F 71.6 ° F 62% 29.74 pul 6.2 mi Este 3.5 mph - N/A   Muy nublado
4:00 PM 87 ° F - 73 ° F 54% 29.75 pul 6 mi NE 4.6 mph - -   Bruma
4:00 PM 87.8 ° F 95.6 ° F 73.4 ° F 62% 29.74 pul 6.2 mi NE 4.6 mph - N/A   Muy nublado
5:00 PM 84.2 ° F 89.6 ° F 71.6 ° F 66% 29.74 pul 6.2 mi SSE 4.6 mph - N/A   Muy nublado
6:00 PM 84.2 ° F 90.9 ° F 73.4 ° F 70% 29.74 pul 6.2 mi Sur 6.9 mph - N/A   Muy nublado
7:00 PM 82 ° F - 74 ° F 70% 29.78 pul 6 mi SSO 8.1 mph - -   Bruma
7:00 PM 82.4 ° F 87.2 ° F 71.6 ° F 70% 29.77 pul 6.2 mi SSO 9.2 mph - N/A   Muy nublado
8:00 PM 80.6 ° F 84.6 ° F 71.6 ° F 74% 29.80 pul 6.2 mi SO 9.2 mph - N/A   Muy nublado
9:00 PM 78.8 ° F - 68.0 ° F 69% 29.80 pul 6.2 mi SO 5.8 mph - N/A   Muy nublado
10:00 PM 78.8 ° F - 69.8 ° F 74% 29.83 pul 6.2 mi SO 6.9 mph - N/A   Muy nublado
11:00 PM 78.8 ° F - 69.8 ° F 74% 29.83 pul 6.2 mi OSO 3.5 mph - N/A   Muy nublado